KC3SPD-13 Weather Reports


time (UTC)temp
C
wind
direction
speed
KPH
gust
KPH
rain 1hr
cm
rain 24hr
cm
rain mn
cm
humidity
%
barometer
mb
20260504050003 7 34 1.6 3.2 0.00 0.00 0.00 59 966.1
20260504045504 7 18 1.6 3.2 0.00 0.00 0.00 59 966.1
20260504045004 7 45 1.6 3.2 0.00 0.00 0.00 61 966.2
20260504044504 7 20 0.0 3.2 0.00 0.00 0.00 62 966.3
20260504044004 7 8 1.6 3.2 0.00 0.00 0.00 58 966.3
20260504043504 7 25 1.6 3.2 0.00 0.00 0.00 61 966.3
20260504043004 7 40 1.6 4.8 0.00 0.00 0.00 61 966.3
20260504042503 7 37 0.0 3.2 0.00 0.00 0.00 61 966.3
20260504042003 7 347 0.0 3.2 0.00 0.00 0.00 60 966.3
20260504041504 7 282 0.0 3.2 0.00 0.00 0.00 60 966.3
20260504041004 7 26 1.6 4.8 0.00 0.00 0.00 59 966.3
20260504040504 7 350 0.0 3.2 0.00 0.00 0.00 57 966.3
20260504040004 7 290 1.6 3.2 0.00 0.00 0.00 59 966.3
20260504035504 7 231 1.6 3.2 0.00 0.00 0.00 57 966.4
20260504035004 7 21 1.6 4.8 0.00 0.00 0.00 56 966.4
20260504034504 7 238 0.0 3.2 0.00 0.00 0.00 55 966.4
20260504034004 8 56 1.6 4.8 0.00 0.00 0.00 55 966.5
20260504033004 8 31 1.6 8.0 0.00 0.00 0.00 51 966.4
20260504032505 8 274 1.6 8.0 0.00 0.00 0.00 51 966.3
20260504032004 9 36 1.6 9.7 0.00 0.00 0.00 50 966.3
20260504031504 9 317 1.6 9.7 0.00 0.00 0.00 48 966.3
20260504030504 9 65 1.6 4.8 0.00 0.00 0.00 47 966.3
20260504030004 9 283 1.6 4.8 0.00 0.00 0.00 47 966.2
20260504025504 9 352 1.6 8.0 0.00 0.00 0.00 48 966.3
20260504024004 10 44 1.6 4.8 0.00 0.00 0.00 48 966.4
20260504023504 10 359 1.6 4.8 0.00 0.00 0.00 47 966.4
20260504023004 10 336 1.6 8.0 0.00 0.00 0.00 46 966.4
20260504022504 10 309 1.6 3.2 0.00 0.00 0.00 46 966.4
20260504022004 10 37 1.6 4.8 0.00 0.00 0.00 46 966.3
20260504021504 10 345 1.6 4.8 0.00 0.00 0.00 46 966.3
20260504021004 10 261 1.6 4.8 0.00 0.00 0.00 45 966.3
20260504020004 10 21 1.6 4.8 0.00 0.00 0.00 47 966.1
20260504015504 11 224 1.6 3.2 0.00 0.00 0.00 46 966.1
20260504015003 11 23 1.6 3.2 0.00 0.00 0.00 45 966.1
20260504014503 11 314 0.0 3.2 0.00 0.00 0.00 44 966.1
20260504014004 11 242 1.6 4.8 0.00 0.00 0.00 44 966.1
20260504013504 11 252 1.6 3.2 0.00 0.00 0.00 45 966.0
20260504012504 11 256 1.6 4.8 0.00 0.00 0.00 44 965.9
20260504012003 11 307 1.6 4.8 0.00 0.00 0.00 43 965.9
20260504011504 11 66 1.6 4.8 0.00 0.00 0.00 43 965.9
20260504011004 11 282 1.6 3.2 0.00 0.00 0.00 43 966.0
20260504010504 11 281 1.6 4.8 0.00 0.00 0.00 43 966.0
20260504010004 11 315 1.6 3.2 0.00 0.00 0.00 43 966.0
20260504005004 11 261 1.6 3.2 0.00 0.00 0.00 43 966.0
20260504004504 11 306 0.0 1.6 0.00 0.00 0.00 43 966.0
20260504004004 11 4 0.0 3.2 0.00 0.00 0.00 43 966.0
20260504003504 11 297 1.6 3.2 0.00 0.00 0.00 42 965.9
20260504003004 12 291 1.6 4.8 0.00 0.00 0.00 43 965.9
20260504002503 12 312 3.2 9.7 0.00 0.00 0.00 42 965.8
20260504001503 12 332 4.8 9.7 0.00 0.00 0.00 42 965.8
20260504001004 12 328 3.2 11.3 0.00 0.00 0.00 40 965.8
20260504000504 12 339 3.2 8.0 0.00 0.00 0.00 42 965.8
20260503235504 12 306 4.8 8.0 0.00 0.00 0.00 40 965.7
20260503235004 12 298 4.8 9.7 0.00 0.00 0.00 39 965.7
20260503233004 13 298 3.2 8.0 0.00 0.00 0.00 39 965.7
20260503232503 14 283 3.2 11.3 0.00 0.00 0.00 39 965.7
20260503232004 14 287 4.8 11.3 0.00 0.00 0.00 36 965.6
20260503231504 14 294 3.2 8.0 0.00 0.00 0.00 36 965.5
20260503231004 14 292 4.8 9.7 0.00 0.00 0.00 37 965.5
20260503230504 14 267 6.4 16.1 0.00 0.00 0.00 36 965.5
20260503230004 15 278 4.8 11.3 0.00 0.00 0.00 39 965.5
20260503225004 14 320 4.8 9.7 0.00 0.00 0.00 36 965.4
20260503224004 15 301 4.8 12.9 0.00 0.00 0.00 37 965.5
20260503223004 15 298 3.2 9.7 0.00 0.00 0.00 36 965.5
20260503222504 15 283 4.8 11.3 0.00 0.00 0.00 36 965.5
20260503222004 15 279 6.4 14.5 0.00 0.00 0.00 36 965.5
20260503221504 15 291 4.8 14.5 0.00 0.00 0.00 36 965.4
20260503220504 15 359 4.8 9.7 0.00 0.00 0.00 35 965.3
20260503220003 15 268 6.4 11.3 0.00 0.00 0.00 36 965.5
20260503215504 15 283 4.8 12.9 0.00 0.00 0.00 36 965.6
20260503215003 15 305 4.8 12.9 0.00 0.00 0.00 36 965.6
20260503214504 15 278 6.4 16.1 0.00 0.00 0.00 34 965.5
20260503214004 15 306 8.0 12.9 0.00 0.00 0.00 35 965.5
20260503213504 15 291 8.0 16.1 0.00 0.00 0.00 36 965.4
20260503213004 15 358 3.2 11.3 0.00 0.00 0.00 36 965.5
20260503212504 15 324 4.8 11.3 0.00 0.00 0.00 37 965.6
20260503212004 15 308 4.8 11.3 0.00 0.00 0.00 36 965.5
20260503211504 14 297 4.8 11.3 0.00 0.00 0.00 37 965.6
20260503211004 14 276 4.8 9.7 0.00 0.00 0.00 38 966.0
20260503210504 15 297 4.8 11.3 0.00 0.00 0.00 35 965.9
20260503210005 15 329 6.4 11.3 0.00 0.00 0.00 36 965.6
20260503205504 15 290 8.0 12.9 0.00 0.00 0.00 35 965.6
20260503205004 15 288 4.8 12.9 0.00 0.00 0.00 37 965.6
20260503204504 15 313 8.0 14.5 0.00 0.00 0.00 36 965.7
20260503204004 14 328 6.4 16.1 0.00 0.00 0.00 36 965.8
20260503203504 14 283 4.8 12.9 0.00 0.00 0.00 36 965.7
20260503202504 15 309 4.8 9.7 0.00 0.00 0.00 36 966.0
20260503202004 14 300 4.8 9.7 0.00 0.00 0.00 37 965.6
20260503201503 14 321 4.8 12.9 0.00 0.00 0.00 37 966.0
20260503200504 14 307 8.0 12.9 0.00 0.00 0.00 38 965.9
20260503200004 14 296 6.4 12.9 0.00 0.00 0.00 37 965.9
20260503195504 14 301 8.0 20.9 0.00 0.00 0.00 37 966.0
20260503194504 14 24 4.8 14.5 0.00 0.00 0.00 37 966.1
20260503193504 14 329 4.8 12.9 0.00 0.00 0.00 37 966.3
20260503193004 14 288 4.8 12.9 0.00 0.00 0.00 36 966.4
20260503192004 12 273 6.4 14.5 0.00 0.00 0.00 39 966.4
20260503191504 13 249 9.7 14.5 0.00 0.00 0.00 38 967.0
20260503191004 13 300 8.0 14.5 0.00 0.00 0.00 38 966.8
20260503190004 13 314 6.4 16.1 0.00 0.00 0.00 38 966.3
20260503185504 13 278 4.8 12.9 0.00 0.00 0.00 39 966.5
20260503185004 13 282 6.4 12.9 0.00 0.00 0.00 39 966.7
20260503184504 13 301 8.0 14.5 0.00 0.00 0.00 38 966.6
20260503184004 13 303 6.4 11.3 0.00 0.00 0.00 37 966.5
20260503183504 13 284 8.0 14.5 0.00 0.00 0.00 39 966.6
20260503182504 13 299 4.8 9.7 0.00 0.00 0.00 41 967.1
20260503182005 13 297 6.4 14.5 0.00 0.00 0.00 38 966.8
20260503181004 12 290 8.0 20.9 0.00 0.00 0.00 40 967.1
20260503180504 12 0 6.4 14.5 0.00 0.00 0.00 39 966.9
20260503180004 13 345 8.0 16.1 0.00 0.00 0.00 39 966.9
20260503175504 12 314 4.8 11.3 0.00 0.00 0.00 42 966.7
20260503175004 12 295 8.0 19.3 0.00 0.00 0.00 41 966.9
20260503174004 12 333 4.8 16.1 0.00 0.00 0.00 41 967.2
20260503173504 12 306 4.8 14.5 0.00 0.00 0.00 41 967.2
20260503173004 12 276 8.0 19.3 0.00 0.00 0.00 40 967.0
20260503172004 11 315 8.0 16.1 0.00 0.00 0.00 41 967.2
20260503171504 11 317 4.8 12.9 0.00 0.00 0.00 42 967.1
20260503171004 11 261 9.7 16.1 0.00 0.00 0.00 42 967.4
20260503131004 6 302 4.8 11.3 0.00 0.00 0.00 62 968.0
20260503130504 5 271 3.2 9.7 0.00 0.00 0.00 63 968.0
20260503110504 2 280 4.8 12.9 0.00 0.00 0.00 73 967.3
20260503081504 3 290 4.8 8.0 0.00 0.00 0.00 72 966.5
20260503080504 2 302 3.2 9.7 0.00 0.00 0.00 73 966.6
20260503072504 3 303 1.6 4.8 0.00 0.00 0.00 76 966.5
20260503072004 3 302 3.2 4.8 0.00 0.00 0.00 74 966.4
20260503071503 3 312 3.2 4.8 0.00 0.00 0.00 74 966.4
20260503071004 3 305 3.2 8.0 0.00 0.00 0.00 72 966.3